Location: Fundy National Park
(45.6138°N, 65.0316°W)
Time: 00:30:13
(UTC-03:00)

Tiangong - Visible Passes

Search period start: 21 October 2021 00:00
Search period end: 31 October 2021 00:00
Orbit: 382 x 384 km, 41.5° (Epoch: 20 October)

Date Brightness Start Highest point End Pass type
(mag) Time Alt. Az. Time Alt. Az. Time Alt. Az.
21 Oct 2.1 19:42:04 10° WSW 19:44:59 33° S 19:45:56 27° SE visible
22 Oct 2.4 20:18:24 10° WSW 20:20:45 33° SSW 20:20:45 33° SSW visible
23 Oct 2.1 19:18:19 10° WSW 19:21:17 37° S 19:23:22 17° ESE visible
23 Oct 4.2 20:54:57 10° WSW 20:55:32 14° WSW 20:55:32 14° WSW visible
24 Oct 2.1 19:54:43 10° WSW 19:57:39 35° S 19:58:08 32° SSE visible
25 Oct 2.1 18:54:32 10° WSW 18:57:30 38° S 19:00:28 10° ESE visible
25 Oct 3.5 20:31:21 10° WSW 20:32:56 19° SW 20:32:56 19° SW visible
26 Oct 2.6 19:30:59 10° WSW 19:33:48 29° SSW 19:35:35 17° SE visible
27 Oct 3.5 20:07:53 10° WSW 20:09:55 16° SSW 20:10:29 15° S visible
28 Oct 3.2 19:07:16 10° WSW 19:09:48 22° SSW 19:12:20 10° SE visible
29 Oct 4.1 19:45:04 10° SW 19:45:48 11° SSW 19:46:32 10° SSW visible
30 Oct 3.9 18:43:38 10° WSW 18:45:41 16° SSW 18:47:44 10° SSE visible
